Find Starlink 35357

NORAD ID: 65799 Int'l Des: 2025-218 Owner: SPXS Country: US Constellation: starlink operational
LEOCIRCULARRETROGRADESSO

リアルタイム位置

3D地球を読み込み中...

Starlink 35357について

説明を読み込み中...

次回通過

Passes for default location (London). Set your location on the main map for personalized predictions.

高度履歴

Loading altitude history...

軌道要素

1 65799U 25218J 26110.32797705 -.00006888 00000-0 -47363-3 0 9992
2 65799 97.5974 333.9694 0002450 84.3620 275.7886 15.05647288 31238
Epoch: Apr 20, 2026 • Age: 11 hours

現在のステータス

高度 555.8 km
速度 7.59 km/s
衛星直下点 48.63°N, 171.91°W
打ち上げ日 Sep 26, 2025
運用期間 0.5 years
タイプ internet

技術仕様

分類 Payload
質量 575.00 kg
乾燥質量 530.00 kg
総質量 575.00 kg
長さ 0.30 m
直径 4.10 m
スパン 29.00 m
形状 Box + pan
製造者 SPXS
バスタイプ Starlink V2MO
フェーズステータス In Orbit
所有者/国 SPXS/US

Most Searched